Location: Ch�tillon
(48.8024°N, 2.2935°E)
Time: 04:35:32
(UTC+00:00)

CAS-4A - Pass Details

Date: 06 July 2022
Orbit: 521 x 537 km, 43.0° (Epoch: 13 August)

Event Time Altitude Azimuth Distance (km) Brightness Sun altitude
Exits shadow 02:33:47 10° 252° (WSW) 1,775 ? -10.3°
Reaches altitude 10° 02:33:50 10° 251° (WSW) 1,755 ? -10.3°
Maximum altitude 02:37:30 35° 185° (S) 855 ? -9.9°
Drops below altitude 10° 02:41:11 10° 119° (ESE) 1,761 ? -9.5°
Sets 02:43:32 0° 110° (ESE) 2,652 ? -9.3°
